Content
SEND FEEDBACK

Daily
Averages
Monthly
Summary
United States of America

SAFFORDVILLE, KANSAS


Home > North America > United States > Kansas
Elevation: 1150 feet     Latitude: 38 24N     Longitude: 096 24W

WEATHER
 
SELECT A DAY
Number of Records: 202,172;   Date Range: 1/1/95 - 12/21/14
 
SHARE

PRINT THIS DATA

[ ← Previous Day ]
WEATHER ALMANAC - JANUARY 3, 2013
[ Next Day → ]
[ °C ]   °F
Weather ElementAverageHighLow
Temperature26.1 °F33.8 °F (3:43 pm)19 °F (3:53 am)
Dewpoint20.4 °F23 °F (11:53 am)17.1 °F (3:53 am)
Humidity80.1 %96 % (8:53 pm)60 % (3:43 pm)
Barometer30.43 in30.49 in (10:53 am)30.34 in (1:53 am)
Wind Speed6.5 mph23 mph (3:53 am)
Wind Gust32.2 mph (3:53 am)
Weather ElementAverage
Visibility9.1 mi
Wind DirectionW (274.4 °)

Weather ElementTotal
Precipitation---
Heating Degree Days38.6 (Base 65)
Averaged from 25 records on January 3, 2013
WEATHER CONDITIONS BREAKOUT
WIND DIRECTION BREAKOUT
WEATHER BY HOUR - JANUARY 3, 2013
[ °C ]   °F
Local TimeTemperatureDewpointHumidityBarometerVisibilityWind DirectionWind SpeedGust SpeedPrecipitationEventsConditions
1:53 AM21.9 °F19.9 °F92 %30.34 in7.0 miWNW (290°)3.5 mphClear
2:53 AM21.0 °F19.0 °F92 %30.36 in7.0 miWest (280°)4.6 mphClear
3:53 AM19.0 °F17.1 °F92 %30.35 in7.0 miSW (220°)23.0 mph32.2 mphClear
4:53 AM19.0 °F17.1 °F92 %30.37 in7.0 miWest (280°)3.5 mphClear
6:53 AM19.9 °F17.1 °F89 %30.41 in10.0 miWest (260°)6.9 mphClear
7:53 AM19.0 °F17.1 °F92 %30.44 in10.0 miWNW (290°)8.1 mphPartly Cloudy
8:53 AM24.1 °F21.0 °F88 %30.45 in10.0 miWNW (300°)8.1 mphOvercast
9:53 AM26.1 °F21.9 °F84 %30.48 in10.0 miNW (320°)8.1 mphOvercast
10:53 AM28.0 °F21.9 °F78 %30.49 in10.0 miNW (320°)6.9 mphOvercast
11:53 AM30.0 °F23.0 °F75 %30.47 in10.0 miNW (320°)8.1 mphOvercast
12:53 PM32.0 °F21.9 °F66 %30.45 in10.0 miNNW (330°)6.9 mphOvercast
1:53 PM30.9 °F23.0 °F72 %30.43 in10.0 miNW (310°)6.9 mphOvercast
2:53 PM32.0 °F21.9 °F66 %30.43 in10.0 miNW (320°)8.1 mphPartly Cloudy
3:29 PM32.0 °F21.2 °F64 %30.39 in10.0 miWNW (300°)8.1 mphMostly Cloudy
3:43 PM33.8 °F21.2 °F60 %30.39 in10.0 miWNW (290°)5.8 mphOvercast
3:53 PM33.1 °F21.0 °F61 %30.45 in10.0 miWNW (300°)8.1 mphOvercast
4:23 PM30.2 °F19.4 °F64 %30.40 in10.0 miWNW (300°)6.9 mphScattered Clouds
4:53 PM30.0 °F21.9 °F72 %30.45 in10.0 miNW (310°)4.6 mphMostly Cloudy
5:53 PM30.0 °F23.0 °F75 %30.47 in10.0 miNW (320°)4.6 mphOvercast
6:53 PM28.9 °F23.0 °F78 %30.48 in10.0 miWNW (300°)3.5 mphOvercast
7:53 PM28.0 °F23.0 °F81 %30.48 in10.0 miWSW (240°)3.5 mphOvercast
8:53 PM21.9 °F21.0 °F96 %30.47 in10.0 miSW (230°)4.6 mphClear
9:53 PM21.9 °F19.0 °F89 %30.47 in7.0 miCalmClear
10:53 PM19.9 °F18.0 °F92 %30.47 in7.0 miSW (220°)3.5 mphClear
11:53 PM19.0 °F17.1 °F92 %30.46 in5.0 miSSW (210°)5.8 mphClear
Hourly data recorded from KEMP, located miles away from Saffordville, Kansas







STORIES FROM OUR PARTNERS